| time (UTC) | temp F | wind direction | speed MPH | gust MPH | rain 1hr in | rain 24hr in | rain mn in | humidity % | barometer mb |
| 20260509181602 | 64 | 228 | 2.0 | 9.0 | 0.00 | 0.00 | 0.00 | 17 | 1018.4 |
| 20260509181047 | 65 | 230 | 1.0 | 11.0 | 0.00 | 0.00 | 0.00 | 18 | 1018.6 |
| 20260509180546 | 64 | 0 | 2.0 | 11.0 | 0.00 | 0.00 | 0.00 | 18 | 1018.8 |
| 20260509180059 | 64 | 227 | 2.0 | 9.0 | 0.00 | 0.00 | 0.00 | 17 | 1018.6 |
| 20260509175547 | 64 | 304 | 1.0 | 10.0 | 0.00 | 0.00 | 0.00 | 18 | 1018.7 |
| 20260509175047 | 64 | 291 | 1.0 | 10.0 | 0.00 | 0.00 | 0.00 | 17 | 1018.9 |
| 20260509174601 | 64 | 0 | 1.0 | 13.0 | 0.00 | 0.00 | 0.00 | 20 | 1018.7 |
| 20260509174046 | 63 | 0 | 2.0 | 13.0 | 0.00 | 0.00 | 0.00 | 22 | 1018.7 |
| 20260509173544 | 63 | 0 | 3.0 | 12.0 | 0.00 | 0.00 | 0.00 | 20 | 1018.7 |
| 20260509173107 | 63 | 0 | 0.0 | 7.0 | 0.00 | 0.00 | 0.00 | 24 | 1018.7 |
| 20260509172545 | 62 | 0 | 0.0 | 8.0 | 0.00 | 0.00 | 0.00 | 22 | 1018.8 |
| 20260509172045 | 62 | 267 | 1.0 | 10.0 | 0.00 | 0.00 | 0.00 | 22 | 1018.9 |
| 20260509171558 | 62 | 0 | 0.0 | 10.0 | 0.00 | 0.00 | 0.00 | 21 | 1018.9 |
| 20260509171044 | 62 | 232 | 2.0 | 10.0 | 0.00 | 0.00 | 0.00 | 24 | 1019.1 |
| 20260509170549 | 62 | 0 | 1.0 | 8.0 | 0.00 | 0.00 | 0.00 | 25 | 1018.8 |
| 20260509170052 | 63 | 15 | 1.0 | 8.0 | 0.00 | 0.00 | 0.00 | 24 | 1018.9 |
| 20260509165546 | 63 | 281 | 1.0 | 10.0 | 0.00 | 0.00 | 0.00 | 24 | 1018.9 |
| 20260509165046 | 63 | 0 | 0.0 | 14.0 | 0.00 | 0.00 | 0.00 | 23 | 1018.8 |
| 20260509164555 | 63 | 0 | 2.0 | 14.0 | 0.00 | 0.00 | 0.00 | 24 | 1018.7 |
| 20260509164045 | 63 | 307 | 2.0 | 10.0 | 0.00 | 0.00 | 0.00 | 24 | 1019.0 |
| 20260509163545 | 64 | 261 | 1.0 | 10.0 | 0.00 | 0.00 | 0.00 | 23 | 1018.7 |
| 20260509163048 | 63 | 0 | 0.0 | 8.0 | 0.00 | 0.00 | 0.00 | 24 | 1018.7 |
| 20260509162545 | 63 | 0 | 0.0 | 7.0 | 0.00 | 0.00 | 0.00 | 23 | 1018.6 |
| 20260509162045 | 63 | 296 | 2.0 | 9.0 | 0.00 | 0.00 | 0.00 | 24 | 1018.5 |
| 20260509161554 | 63 | 0 | 0.0 | 9.0 | 0.00 | 0.00 | 0.00 | 25 | 1018.4 |
| 20260509161045 | 62 | 0 | 3.0 | 9.0 | 0.00 | 0.00 | 0.00 | 24 | 1018.3 |
| 20260509160545 | 62 | 0 | 1.0 | 8.0 | 0.00 | 0.00 | 0.00 | 24 | 1018.2 |
| 20260509160048 | 62 | 0 | 0.0 | 8.0 | 0.00 | 0.00 | 0.00 | 24 | 1018.1 |
| 20260509155544 | 63 | 285 | 1.0 | 11.0 | 0.00 | 0.00 | 0.00 | 26 | 1018.1 |
| 20260509155044 | 63 | 213 | 1.0 | 11.0 | 0.00 | 0.00 | 0.00 | 25 | 1018.0 |
| 20260509154600 | 62 | 237 | 0.0 | 4.0 | 0.00 | 0.00 | 0.00 | 26 | 1018.0 |
| 20260509154045 | 62 | 0 | 0.0 | 9.0 | 0.00 | 0.00 | 0.00 | 24 | 1017.9 |
| 20260509153545 | 62 | 280 | 2.0 | 9.0 | 0.00 | 0.00 | 0.00 | 26 | 1018.1 |
| 20260509153049 | 62 | 113 | 0.0 | 8.0 | 0.00 | 0.00 | 0.00 | 25 | 1017.9 |
| 20260509152545 | 61 | 0 | 1.0 | 8.0 | 0.00 | 0.00 | 0.00 | 25 | 1018.1 |
| 20260509152045 | 61 | 0 | 0.0 | 15.0 | 0.00 | 0.00 | 0.00 | 26 | 1018.2 |
| 20260509151553 | 61 | 269 | 4.0 | 15.0 | 0.00 | 0.00 | 0.00 | 27 | 1018.2 |
| 20260509151048 | 61 | 0 | 0.0 | 8.0 | 0.00 | 0.00 | 0.00 | 26 | 1018.3 |
| 20260509150545 | 60 | 31 | 2.0 | 5.0 | 0.00 | 0.00 | 0.00 | 31 | 1018.3 |
| 20260509150052 | 59 | 0 | 0.0 | 6.0 | 0.00 | 0.00 | 0.00 | 32 | 1018.2 |
| 20260509145546 | 59 | 0 | 0.0 | 6.0 | 0.00 | 0.00 | 0.00 | 31 | 1018.3 |
| 20260509145045 | 58 | 0 | 1.0 | 6.0 | 0.00 | 0.00 | 0.00 | 31 | 1018.3 |
| 20260509144602 | 58 | 0 | 0.0 | 1.0 | 0.00 | 0.00 | 0.00 | 29 | 1018.4 |
| 20260509144044 | 57 | 0 | 0.0 | 2.0 | 0.00 | 0.00 | 0.00 | 33 | 1018.4 |
| 20260509143544 | 57 | 0 | 0.0 | 2.0 | 0.00 | 0.00 | 0.00 | 33 | 1018.2 |
| 20260509143052 | 56 | 0 | 0.0 | 2.0 | 0.00 | 0.00 | 0.00 | 35 | 1018.4 |
| 20260509142544 | 55 | 0 | 0.0 | 1.0 | 0.00 | 0.00 | 0.00 | 37 | 1018.6 |
| 20260509142044 | 54 | 0 | 0.0 | 0.0 | 0.00 | 0.00 | 0.00 | 41 | 1018.6 |
| 20260509141550 | 53 | 0 | 0.0 | 1.0 | 0.00 | 0.00 | 0.00 | 45 | 1018.7 |
| 20260509141045 | 51 | 0 | 0.0 | 2.0 | 0.00 | 0.00 | 0.00 | 46 | 1018.8 |
| 20260509140545 | 50 | 0 | 0.0 | 2.0 | 0.00 | 0.00 | 0.00 | 47 | 1018.9 |
| 20260509140105 | 48 | 0 | 0.0 | 0.0 | 0.00 | 0.00 | 0.00 | 53 | 1019.0 |
| 20260509135545 | 46 | 0 | 0.0 | 0.0 | 0.00 | 0.00 | 0.00 | 60 | 1019.1 |
| 20260509135045 | 45 | 0 | 0.0 | 0.0 | 0.00 | 0.00 | 0.00 | 63 | 1018.9 |
| 20260509134556 | 44 | 0 | 0.0 | 0.0 | 0.00 | 0.00 | 0.00 | 61 | 1019.0 |
| 20260509134049 | 45 | 0 | 0.0 | 0.0 | 0.00 | 0.00 | 0.00 | 57 | 1018.9 |
| 20260509133545 | 45 | 0 | 0.0 | 0.0 | 0.00 | 0.00 | 0.00 | 56 | 1018.9 |
| 20260509133058 | 46 | 0 | 0.0 | 0.0 | 0.00 | 0.00 | 0.00 | 55 | 1018.9 |
| 20260509132545 | 47 | 0 | 0.0 | 0.0 | 0.00 | 0.00 | 0.00 | 53 | 1018.8 |
| 20260509132044 | 47 | 0 | 0.0 | 0.0 | 0.00 | 0.00 | 0.00 | 50 | 1018.8 |
| 20260509131555 | 48 | 0 | 0.0 | 0.0 | 0.00 | 0.00 | 0.00 | 50 | 1018.7 |
| 20260509131047 | 49 | 0 | 0.0 | 4.0 | 0.00 | 0.00 | 0.00 | 48 | 1018.6 |
| 20260509130546 | 49 | 0 | 0.0 | 4.0 | 0.00 | 0.00 | 0.00 | 47 | 1018.6 |
| 20260509130059 | 49 | 0 | 0.0 | 5.0 | 0.00 | 0.00 | 0.00 | 46 | 1018.5 |
| 20260509125544 | 49 | 0 | 0.0 | 7.0 | 0.00 | 0.00 | 0.00 | 45 | 1018.4 |
| 20260509125046 | 50 | 0 | 0.0 | 7.0 | 0.00 | 0.00 | 0.00 | 45 | 1018.2 |
| 20260509124546 | 50 | 286 | 0.0 | 7.0 | 0.00 | 0.00 | 0.00 | 45 | 1018.1 |
| 20260509124047 | 50 | 295 | 1.0 | 9.0 | 0.00 | 0.00 | 0.00 | 45 | 1017.8 |
| 20260509123547 | 50 | 0 | 1.0 | 9.0 | 0.00 | 0.00 | 0.00 | 45 | 1017.8 |
| 20260509123048 | 50 | 294 | 0.0 | 8.0 | 0.00 | 0.00 | 0.00 | 45 | 1017.7 |
| 20260509122547 | 50 | 267 | 1.0 | 7.0 | 0.00 | 0.00 | 0.00 | 46 | 1017.6 |
| 20260509122046 | 50 | 309 | 0.0 | 6.0 | 0.00 | 0.00 | 0.00 | 45 | 1017.4 |
| 20260509121601 | 50 | 0 | 1.0 | 6.0 | 0.00 | 0.00 | 0.00 | 45 | 1017.4 |
| 20260509121048 | 50 | 0 | 0.0 | 5.0 | 0.00 | 0.00 | 0.00 | 45 | 1017.5 |
| 20260509120547 | 49 | 330 | 1.0 | 5.0 | 0.00 | 0.00 | 0.00 | 46 | 1017.3 |
| 20260509120051 | 50 | 0 | 0.0 | 4.0 | 0.00 | 0.00 | 0.00 | 46 | 1017.2 |
| 20260509115543 | 50 | 0 | 0.0 | 9.0 | 0.00 | 0.00 | 0.00 | 46 | 1017.1 |
| 20260509115045 | 50 | 0 | 0.0 | 9.0 | 0.00 | 0.00 | 0.00 | 46 | 1017.1 |
| 20260509114551 | 50 | 0 | 2.0 | 9.0 | 0.00 | 0.00 | 0.00 | 45 | 1017.1 |
| 20260509114047 | 50 | 292 | 2.0 | 12.0 | 0.00 | 0.00 | 0.00 | 45 | 1017.1 |
| 20260509113546 | 51 | 0 | 2.0 | 12.0 | 0.00 | 0.00 | 0.00 | 45 | 1016.9 |
| 20260509113056 | 51 | 236 | 3.0 | 11.0 | 0.00 | 0.00 | 0.00 | 44 | 1016.7 |
| 20260509112550 | 51 | 0 | 2.0 | 11.0 | 0.00 | 0.00 | 0.00 | 44 | 1016.6 |
| 20260509112047 | 51 | 0 | 3.0 | 11.0 | 0.00 | 0.00 | 0.00 | 44 | 1016.7 |
| 20260509111559 | 51 | 138 | 4.0 | 15.0 | 0.00 | 0.00 | 0.00 | 43 | 1016.4 |
| 20260509111047 | 51 | 0 | 4.0 | 15.0 | 0.00 | 0.00 | 0.00 | 43 | 1016.5 |
| 20260509110549 | 51 | 214 | 3.0 | 17.0 | 0.00 | 0.00 | 0.00 | 43 | 1016.2 |
| 20260509110054 | 51 | 269 | 4.0 | 17.0 | 0.00 | 0.00 | 0.00 | 44 | 1016.3 |
| 20260509105549 | 51 | 221 | 4.0 | 16.0 | 0.00 | 0.00 | 0.00 | 43 | 1016.4 |
| 20260509105046 | 51 | 211 | 2.0 | 16.0 | 0.00 | 0.00 | 0.00 | 44 | 1016.4 |
| 20260509104551 | 51 | 200 | 5.0 | 18.0 | 0.00 | 0.00 | 0.00 | 44 | 1016.4 |
| 20260509104042 | 51 | 294 | 5.0 | 18.0 | 0.00 | 0.00 | 0.00 | 44 | 1016.4 |
| 20260509103542 | 51 | 0 | 2.0 | 12.0 | 0.00 | 0.00 | 0.00 | 45 | 1016.4 |
| 20260509103104 | 51 | 227 | 1.0 | 17.0 | 0.00 | 0.00 | 0.00 | 45 | 1016.1 |
| 20260509102639 | 51 | 258 | 3.0 | 17.0 | 0.00 | 0.00 | 0.00 | 45 | 1016.2 |
| 20260509102047 | 51 | 263 | 4.0 | 17.0 | 0.00 | 0.00 | 0.00 | 44 | 1016.1 |
| 20260509101554 | 51 | 210 | 3.0 | 15.0 | 0.00 | 0.00 | 0.00 | 44 | 1016.5 |
| 20260509101046 | 51 | 275 | 3.0 | 11.0 | 0.00 | 0.00 | 0.00 | 44 | 1016.6 |
| 20260509100548 | 51 | 296 | 2.0 | 11.0 | 0.00 | 0.00 | 0.00 | 44 | 1016.6 |
| 20260509100055 | 51 | 0 | 2.0 | 13.0 | 0.00 | 0.00 | 0.00 | 44 | 1016.6 |
| 20260509095547 | 50 | 0 | 4.0 | 13.0 | 0.00 | 0.00 | 0.00 | 45 | 1016.7 |
| 20260509095047 | 50 | 265 | 3.0 | 12.0 | 0.00 | 0.00 | 0.00 | 45 | 1016.7 |
| 20260509094552 | 50 | 360 | 2.0 | 10.0 | 0.00 | 0.00 | 0.00 | 44 | 1016.8 |
| 20260509094043 | 50 | 0 | 0.0 | 9.0 | 0.00 | 0.00 | 0.00 | 44 | 1016.9 |
| 20260509093543 | 50 | 0 | 1.0 | 9.0 | 0.00 | 0.00 | 0.00 | 43 | 1016.9 |
| 20260509093054 | 51 | 0 | 0.0 | 5.0 | 0.00 | 0.00 | 0.00 | 44 | 1016.8 |
| 20260509092542 | 51 | 283 | 0.0 | 8.0 | 0.00 | 0.00 | 0.00 | 44 | 1016.8 |
| 20260509092043 | 51 | 0 | 0.0 | 8.0 | 0.00 | 0.00 | 0.00 | 45 | 1016.8 |
| 20260509091552 | 51 | 0 | 1.0 | 10.0 | 0.00 | 0.00 | 0.00 | 44 | 1016.8 |
| 20260509091043 | 51 | 261 | 1.0 | 10.0 | 0.00 | 0.00 | 0.00 | 44 | 1016.7 |
| 20260509090548 | 51 | 237 | 2.0 | 12.0 | 0.00 | 0.00 | 0.00 | 44 | 1016.7 |
| 20260509090104 | 51 | 0 | 1.0 | 12.0 | 0.00 | 0.00 | 0.00 | 45 | 1016.6 |
| 20260509085546 | 50 | 223 | 1.0 | 12.0 | 0.00 | 0.00 | 0.00 | 45 | 1016.5 |
| 20260509085046 | 50 | 0 | 0.0 | 9.0 | 0.00 | 0.00 | 0.00 | 46 | 1016.6 |
| 20260509084559 | 50 | 0 | 1.0 | 9.0 | 0.00 | 0.00 | 0.00 | 45 | 1016.6 |
| 20260509084047 | 50 | 0 | 1.0 | 8.0 | 0.00 | 0.00 | 0.00 | 46 | 1016.5 |
| 20260509083547 | 50 | 263 | 0.0 | 8.0 | 0.00 | 0.00 | 0.00 | 47 | 1016.6 |
| 20260509083100 | 50 | 0 | 1.0 | 7.0 | 0.00 | 0.00 | 0.00 | 47 | 1016.6 |
| 20260509082545 | 49 | 360 | 0.0 | 11.0 | 0.00 | 0.00 | 0.00 | 47 | 1016.7 |
| 20260509082048 | 49 | 277 | 1.0 | 11.0 | 0.00 | 0.00 | 0.00 | 48 | 1016.7 |
| 20260509081554 | 49 | 0 | 0.0 | 2.0 | 0.00 | 0.00 | 0.00 | 48 | 1016.7 |
| 20260509081042 | 49 | 0 | 0.0 | 2.0 | 0.00 | 0.00 | 0.00 | 48 | 1016.9 |
| 20260509080544 | 49 | 0 | 0.0 | 2.0 | 0.00 | 0.00 | 0.00 | 48 | 1016.8 |
| 20260509080059 | 49 | 0 | 0.0 | 5.0 | 0.00 | 0.00 | 0.00 | 49 | 1016.8 |
| 20260509075548 | 49 | 0 | 0.0 | 5.0 | 0.00 | 0.00 | 0.00 | 48 | 1016.9 |
| 20260509075044 | 49 | 0 | 0.0 | 5.0 | 0.00 | 0.00 | 0.00 | 48 | 1017.0 |
| 20260509074553 | 49 | 0 | 0.0 | 5.0 | 0.00 | 0.00 | 0.00 | 47 | 1017.0 |
| 20260509074044 | 49 | 0 | 0.0 | 6.0 | 0.00 | 0.00 | 0.00 | 48 | 1017.1 |
| 20260509073546 | 49 | 0 | 0.0 | 7.0 | 0.00 | 0.00 | 0.00 | 48 | 1017.1 |
| 20260509073052 | 49 | 0 | 0.0 | 7.0 | 0.00 | 0.00 | 0.00 | 49 | 1017.1 |
| 20260509072550 | 49 | 0 | 0.0 | 3.0 | 0.00 | 0.00 | 0.00 | 48 | 1017.1 |
| 20260509072047 | 49 | 0 | 0.0 | 0.0 | 0.00 | 0.00 | 0.00 | 50 | 1017.2 |
| 20260509071552 | 49 | 0 | 0.0 | 0.0 | 0.00 | 0.00 | 0.00 | 50 | 1017.2 |
| 20260509071046 | 49 | 0 | 0.0 | 0.0 | 0.00 | 0.00 | 0.00 | 50 | 1017.2 |
| 20260509070544 | 49 | 0 | 0.0 | 2.0 | 0.00 | 0.00 | 0.00 | 51 | 1017.2 |
| 20260509070052 | 49 | 0 | 0.0 | 2.0 | 0.00 | 0.00 | 0.00 | 51 | 1017.2 |
| 20260509065548 | 48 | 0 | 0.0 | 1.0 | 0.00 | 0.00 | 0.00 | 52 | 1017.2 |
| 20260509065048 | 48 | 0 | 0.0 | 1.0 | 0.00 | 0.00 | 0.00 | 53 | 1017.2 |
| 20260509064553 | 48 | 0 | 0.0 | 0.0 | 0.00 | 0.00 | 0.00 | 54 | 1017.1 |
| 20260509064048 | 48 | 0 | 0.0 | 0.0 | 0.00 | 0.00 | 0.00 | 56 | 1017.2 |
| 20260509063546 | 48 | 0 | 0.0 | 0.0 | 0.00 | 0.00 | 0.00 | 56 | 1017.2 |
| 20260509063103 | 48 | 0 | 0.0 | 0.0 | 0.00 | 0.00 | 0.00 | 55 | 1017.3 |
| 20260509062547 | 49 | 0 | 0.0 | 0.0 | 0.00 | 0.00 | 0.00 | 55 | 1017.2 |
| 20260509062047 | 48 | 0 | 0.0 | 0.0 | 0.00 | 0.00 | 0.00 | 56 | 1017.3 |
| 20260509061558 | 48 | 0 | 0.0 | 0.0 | 0.00 | 0.00 | 0.00 | 56 | 1017.3 |
| 20260509061044 | 48 | 0 | 0.0 | 0.0 | 0.00 | 0.00 | 0.00 | 59 | 1017.3 |
| 20260509060547 | 48 | 0 | 0.0 | 0.0 | 0.00 | 0.00 | 0.00 | 58 | 1017.4 |
| 20260509060101 | 48 | 0 | 0.0 | 0.0 | 0.00 | 0.00 | 0.00 | 61 | 1017.4 |
| 20260509055544 | 48 | 0 | 0.0 | 0.0 | 0.00 | 0.00 | 0.00 | 61 | 1017.5 |
| 20260509055045 | 48 | 0 | 0.0 | 2.0 | 0.00 | 0.00 | 0.00 | 62 | 1017.5 |
| 20260509054559 | 48 | 0 | 0.0 | 2.0 | 0.00 | 0.00 | 0.00 | 62 | 1017.6 |
| 20260509054044 | 48 | 0 | 0.0 | 2.0 | 0.00 | 0.00 | 0.00 | 64 | 1017.6 |
| 20260509053544 | 48 | 0 | 0.0 | 2.0 | 0.00 | 0.00 | 0.00 | 64 | 1017.6 |
| 20260509053132 | 48 | 0 | 0.0 | 0.0 | 0.00 | 0.00 | 0.00 | 66 | 1017.7 |
| 20260509052547 | 47 | 0 | 0.0 | 0.0 | 0.00 | 0.00 | 0.00 | 68 | 1017.7 |
| 20260509052047 | 47 | 0 | 0.0 | 0.0 | 0.00 | 0.00 | 0.00 | 70 | 1017.8 |
| 20260509051557 | 46 | 0 | 0.0 | 0.0 | 0.00 | 0.00 | 0.00 | 72 | 1017.8 |
| 20260509051047 | 45 | 0 | 0.0 | 0.0 | 0.00 | 0.00 | 0.00 | 73 | 1017.8 |
| 20260509050547 | 45 | 0 | 0.0 | 0.0 | 0.00 | 0.00 | 0.00 | 74 | 1017.9 |
| 20260509050057 | 45 | 0 | 0.0 | 0.0 | 0.00 | 0.00 | 0.00 | 75 | 1017.9 |
| 20260509045547 | 45 | 0 | 0.0 | 0.0 | 0.00 | 0.00 | 0.00 | 75 | 1017.9 |
| 20260509045046 | 45 | 0 | 0.0 | 0.0 | 0.00 | 0.00 | 0.00 | 76 | 1017.9 |
| 20260509044557 | 45 | 0 | 0.0 | 0.0 | 0.00 | 0.00 | 0.00 | 76 | 1017.9 |
| 20260509044047 | 45 | 0 | 0.0 | 0.0 | 0.00 | 0.00 | 0.00 | 76 | 1018.0 |
| 20260509043544 | 45 | 0 | 0.0 | 0.0 | 0.00 | 0.00 | 0.00 | 76 | 1018.1 |
| 20260509043105 | 45 | 0 | 0.0 | 0.0 | 0.00 | 0.00 | 0.00 | 77 | 1018.2 |
| 20260509042549 | 45 | 0 | 0.0 | 0.0 | 0.00 | 0.00 | 0.00 | 77 | 1018.2 |
| 20260509042048 | 46 | 0 | 0.0 | 0.0 | 0.00 | 0.00 | 0.00 | 77 | 1018.4 |
| 20260509041600 | 46 | 0 | 0.0 | 0.0 | 0.00 | 0.00 | 0.00 | 77 | 1018.4 |
| 20260509041048 | 46 | 0 | 0.0 | 0.0 | 0.00 | 0.00 | 0.00 | 77 | 1018.4 |
| 20260509040548 | 46 | 0 | 0.0 | 0.0 | 0.00 | 0.00 | 0.00 | 77 | 1018.6 |
| 20260509035548 | 46 | 0 | 0.0 | 0.0 | 0.00 | 0.00 | 0.00 | 76 | 1018.8 |
| 20260509035047 | 46 | 0 | 0.0 | 0.0 | 0.00 | 0.00 | 0.00 | 76 | 1018.8 |
| 20260509034603 | 46 | 0 | 0.0 | 0.0 | 0.00 | 0.00 | 0.00 | 76 | 1018.8 |
| 20260509034045 | 46 | 0 | 0.0 | 0.0 | 0.00 | 0.00 | 0.00 | 76 | 1018.8 |
| 20260509033550 | 46 | 0 | 0.0 | 0.0 | 0.00 | 0.00 | 0.00 | 77 | 1018.9 |
| 20260509033052 | 46 | 0 | 0.0 | 0.0 | 0.00 | 0.00 | 0.00 | 76 | 1019.1 |
| 20260509032546 | 46 | 0 | 0.0 | 0.0 | 0.00 | 0.00 | 0.00 | 76 | 1019.1 |
| 20260509032045 | 46 | 0 | 0.0 | 0.0 | 0.00 | 0.00 | 0.00 | 76 | 1019.0 |
| 20260509031603 | 46 | 0 | 0.0 | 0.0 | 0.00 | 0.00 | 0.00 | 77 | 1019.1 |
| 20260509031047 | 46 | 0 | 0.0 | 0.0 | 0.00 | 0.00 | 0.00 | 76 | 1019.1 |
| 20260509030551 | 46 | 0 | 0.0 | 0.0 | 0.00 | 0.00 | 0.00 | 76 | 1018.9 |
| 20260509030049 | 47 | 0 | 0.0 | 0.0 | 0.00 | 0.00 | 0.00 | 75 | 1018.9 |
| 20260509025547 | 47 | 0 | 0.0 | 0.0 | 0.00 | 0.00 | 0.00 | 75 | 1018.9 |
| 20260509025045 | 47 | 0 | 0.0 | 0.0 | 0.00 | 0.00 | 0.00 | 74 | 1018.7 |
| 20260509024552 | 47 | 0 | 0.0 | 0.0 | 0.00 | 0.00 | 0.00 | 73 | 1018.6 |
| 20260509024047 | 48 | 0 | 0.0 | 0.0 | 0.00 | 0.00 | 0.00 | 72 | 1018.6 |
| 20260509023546 | 48 | 0 | 0.0 | 0.0 | 0.00 | 0.00 | 0.00 | 72 | 1018.6 |
| 20260509023050 | 48 | 0 | 0.0 | 0.0 | 0.00 | 0.00 | 0.00 | 70 | 1018.6 |
| 20260509022546 | 49 | 0 | 0.0 | 0.0 | 0.00 | 0.00 | 0.00 | 70 | 1018.5 |
| 20260509022046 | 50 | 0 | 0.0 | 0.0 | 0.00 | 0.00 | 0.00 | 69 | 1018.5 |
| 20260509021551 | 50 | 0 | 0.0 | 0.0 | 0.00 | 0.00 | 0.00 | 67 | 1018.4 |
| 20260509021048 | 50 | 0 | 0.0 | 0.0 | 0.00 | 0.00 | 0.00 | 67 | 1018.4 |
| 20260509020549 | 51 | 0 | 0.0 | 0.0 | 0.00 | 0.00 | 0.00 | 66 | 1018.3 |
| 20260509020055 | 51 | 0 | 0.0 | 0.0 | 0.00 | 0.00 | 0.00 | 66 | 1018.4 |
| 20260509015545 | 52 | 0 | 0.0 | 0.0 | 0.00 | 0.00 | 0.00 | 64 | 1018.3 |
| 20260509015048 | 52 | 0 | 0.0 | 0.0 | 0.00 | 0.00 | 0.00 | 64 | 1018.2 |
| 20260509014600 | 53 | 0 | 0.0 | 0.0 | 0.00 | 0.00 | 0.00 | 62 | 1018.3 |
| 20260509014047 | 53 | 0 | 0.0 | 0.0 | 0.00 | 0.00 | 0.00 | 61 | 1018.2 |
| 20260509013545 | 53 | 0 | 0.0 | 0.0 | 0.00 | 0.00 | 0.00 | 61 | 1018.1 |
| 20260509013051 | 54 | 0 | 0.0 | 0.0 | 0.00 | 0.00 | 0.00 | 59 | 1018.1 |
| 20260509012543 | 54 | 0 | 0.0 | 0.0 | 0.00 | 0.00 | 0.00 | 58 | 1018.0 |
| 20260509012047 | 54 | 0 | 0.0 | 0.0 | 0.00 | 0.00 | 0.00 | 57 | 1018.1 |
| 20260509011553 | 54 | 0 | 0.0 | 2.0 | 0.00 | 0.00 | 0.00 | 57 | 1018.1 |
| 20260509011048 | 55 | 0 | 0.0 | 2.0 | 0.00 | 0.00 | 0.00 | 56 | 1018.1 |
| 20260509010550 | 55 | 0 | 0.0 | 2.0 | 0.00 | 0.00 | 0.00 | 56 | 1017.9 |
| 20260509010056 | 55 | 0 | 0.0 | 4.0 | 0.00 | 0.00 | 0.00 | 56 | 1017.9 |
| 20260509005550 | 55 | 0 | 0.0 | 4.0 | 0.00 | 0.00 | 0.00 | 56 | 1018.0 |
| 20260509005046 | 55 | 0 | 1.0 | 4.0 | 0.00 | 0.00 | 0.00 | 55 | 1018.0 |
| 20260509004552 | 56 | 0 | 0.0 | 4.0 | 0.00 | 0.00 | 0.00 | 55 | 1017.9 |
| 20260509004048 | 56 | 0 | 0.0 | 7.0 | 0.00 | 0.00 | 0.00 | 54 | 1017.9 |
| 20260509003547 | 56 | 128 | 0.0 | 7.0 | 0.00 | 0.00 | 0.00 | 54 | 1017.9 |
| 20260509003053 | 57 | 0 | 1.0 | 7.0 | 0.00 | 0.00 | 0.00 | 54 | 1017.9 |
| 20260509002547 | 57 | 96 | 2.0 | 4.0 | 0.00 | 0.00 | 0.00 | 53 | 1018.0 |
| 20260509002045 | 57 | 96 | 2.0 | 5.0 | 0.00 | 0.00 | 0.00 | 52 | 1017.9 |
| 20260509001550 | 57 | 0 | 1.0 | 11.0 | 0.00 | 0.00 | 0.00 | 53 | 1017.9 |
| 20260509001046 | 57 | 109 | 3.0 | 11.0 | 0.00 | 0.00 | 0.00 | 53 | 1017.9 |
| 20260509000548 | 57 | 49 | 5.0 | 11.0 | 0.00 | 0.00 | 0.00 | 52 | 1017.9 |
| 20260509000055 | 57 | 91 | 1.0 | 6.0 | 0.00 | 0.00 | 0.00 | 53 | 1017.8 |
| 20260508235548 | 58 | 95 | 1.0 | 7.0 | 0.00 | 0.00 | 0.00 | 52 | 1017.9 |
| 20260508235048 | 58 | 84 | 0.0 | 8.0 | 0.00 | 0.00 | 0.00 | 52 | 1017.9 |
| 20260508234553 | 58 | 83 | 2.0 | 8.0 | 0.00 | 0.00 | 0.00 | 51 | 1017.9 |
| 20260508234046 | 58 | 63 | 1.0 | 11.0 | 0.00 | 0.00 | 0.00 | 53 | 1017.9 |
| 20260508233546 | 58 | 123 | 1.0 | 11.0 | 0.00 | 0.00 | 0.00 | 52 | 1017.8 |
| 20260508233106 | 58 | 29 | 2.0 | 10.0 | 0.00 | 0.00 | 0.00 | 52 | 1017.7 |
| 20260508232545 | 58 | 93 | 2.0 | 8.0 | 0.00 | 0.00 | 0.00 | 54 | 1017.8 |
| 20260508232045 | 58 | 0 | 0.0 | 4.0 | 0.00 | 0.00 | 0.00 | 52 | 1017.8 |
| 20260508231552 | 58 | 138 | 1.0 | 7.0 | 0.00 | 0.00 | 0.00 | 52 | 1017.8 |
| 20260508231047 | 58 | 0 | 2.0 | 7.0 | 0.00 | 0.00 | 0.00 | 51 | 1017.8 |
| 20260508230547 | 58 | 108 | 1.0 | 6.0 | 0.00 | 0.00 | 0.00 | 52 | 1017.8 |
| 20260508230100 | 58 | 123 | 2.0 | 7.0 | 0.00 | 0.00 | 0.00 | 51 | 1017.9 |
| 20260508225547 | 58 | 83 | 1.0 | 7.0 | 0.00 | 0.00 | 0.00 | 52 | 1017.8 |
| 20260508225045 | 58 | 123 | 2.0 | 9.0 | 0.00 | 0.00 | 0.00 | 52 | 1017.8 |
| 20260508224556 | 58 | 0 | 2.0 | 9.0 | 0.00 | 0.00 | 0.00 | 52 | 1017.8 |
| 20260508224048 | 58 | 87 | 1.0 | 7.0 | 0.00 | 0.00 | 0.00 | 50 | 1017.9 |
| 20260508223550 | 58 | 96 | 1.0 | 7.0 | 0.00 | 0.00 | 0.00 | 53 | 1018.0 |
| 20260508223051 | 58 | 122 | 2.0 | 9.0 | 0.00 | 0.00 | 0.00 | 52 | 1017.9 |
| 20260508222547 | 59 | 80 | 3.0 | 9.0 | 0.00 | 0.00 | 0.00 | 52 | 1018.0 |
| 20260508222046 | 59 | 103 | 2.0 | 9.0 | 0.00 | 0.00 | 0.00 | 54 | 1018.0 |
| 20260508221551 | 58 | 121 | 2.0 | 9.0 | 0.00 | 0.00 | 0.00 | 52 | 1018.0 |
| 20260508221046 | 58 | 85 | 3.0 | 9.0 | 0.00 | 0.00 | 0.00 | 52 | 1018.0 |
| 20260508220546 | 58 | 74 | 2.0 | 8.0 | 0.00 | 0.00 | 0.00 | 51 | 1018.1 |
| 20260508220046 | 59 | 84 | 2.0 | 8.0 | 0.00 | 0.00 | 0.00 | 53 | 1018.3 |
| 20260508215545 | 59 | 126 | 1.0 | 8.0 | 0.00 | 0.00 | 0.00 | 52 | 1018.2 |
| 20260508215046 | 59 | 134 | 3.0 | 9.0 | 0.00 | 0.00 | 0.00 | 51 | 1018.2 |
| 20260508214550 | 59 | 96 | 2.0 | 15.0 | 0.00 | 0.00 | 0.00 | 53 | 1018.2 |
| 20260508214045 | 59 | 130 | 3.0 | 15.0 | 0.00 | 0.00 | 0.00 | 53 | 1018.2 |
| 20260508213545 | 59 | 106 | 4.0 | 15.0 | 0.00 | 0.00 | 0.00 | 52 | 1018.1 |
| 20260508213057 | 60 | 147 | 4.0 | 10.0 | 0.00 | 0.00 | 0.00 | 50 | 1018.3 |
| 20260508212547 | 60 | 122 | 3.0 | 11.0 | 0.00 | 0.00 | 0.00 | 52 | 1018.3 |
| 20260508212046 | 60 | 109 | 2.0 | 11.0 | 0.00 | 0.00 | 0.00 | 51 | 1018.3 |
| 20260508211550 | 60 | 89 | 1.0 | 10.0 | 0.00 | 0.00 | 0.00 | 52 | 1018.4 |
| 20260508211046 | 60 | 122 | 2.0 | 9.0 | 0.00 | 0.00 | 0.00 | 53 | 1018.3 |
| 20260508210551 | 59 | 96 | 2.0 | 9.0 | 0.00 | 0.00 | 0.00 | 52 | 1018.4 |
| 20260508210050 | 59 | 74 | 1.0 | 9.0 | 0.00 | 0.00 | 0.00 | 52 | 1018.4 |
| 20260508205546 | 59 | 83 | 3.0 | 9.0 | 0.00 | 0.00 | 0.00 | 53 | 1018.4 |
| 20260508205050 | 59 | 112 | 1.0 | 9.0 | 0.00 | 0.00 | 0.00 | 54 | 1018.4 |
| 20260508204548 | 59 | 82 | 4.0 | 9.0 | 0.00 | 0.00 | 0.00 | 52 | 1018.4 |
| 20260508204047 | 59 | 120 | 2.0 | 9.0 | 0.00 | 0.00 | 0.00 | 55 | 1018.4 |
| 20260508203550 | 58 | 126 | 2.0 | 11.0 | 0.00 | 0.00 | 0.00 | 55 | 1018.4 |
| 20260508203051 | 58 | 94 | 4.0 | 11.0 | 0.00 | 0.00 | 0.00 | 54 | 1018.6 |
| 20260508202546 | 58 | 126 | 3.0 | 10.0 | 0.00 | 0.00 | 0.00 | 55 | 1018.5 |
| 20260508202045 | 58 | 137 | 4.0 | 10.0 | 0.00 | 0.00 | 0.00 | 55 | 1018.6 |
| 20260508201554 | 58 | 171 | 2.0 | 8.0 | 0.00 | 0.00 | 0.00 | 55 | 1018.5 |
| 20260508201045 | 58 | 95 | 2.0 | 8.0 | 0.00 | 0.00 | 0.00 | 53 | 1018.7 |
| 20260508200546 | 58 | 71 | 2.0 | 8.0 | 0.00 | 0.00 | 0.00 | 55 | 1018.6 |
| 20260508200056 | 58 | 115 | 3.0 | 9.0 | 0.00 | 0.00 | 0.00 | 55 | 1018.6 |
| 20260508195546 | 58 | 0 | 3.0 | 9.0 | 0.00 | 0.01 | 0.00 | 57 | 1018.7 |
| 20260508195045 | 58 | 48 | 3.0 | 9.0 | 0.00 | 0.01 | 0.00 | 56 | 1018.8 |
| 20260508194547 | 58 | 71 | 2.0 | 7.0 | 0.00 | 0.01 | 0.00 | 57 | 1018.8 |
| 20260508194047 | 58 | 135 | 2.0 | 8.0 | 0.00 | 0.01 | 0.00 | 56 | 1018.8 |
| 20260508193545 | 57 | 0 | 0.0 | 9.0 | 0.00 | 0.01 | 0.00 | 57 | 1018.8 |
| 20260508193058 | 57 | 75 | 2.0 | 9.0 | 0.00 | 0.01 | 0.00 | 58 | 1018.9 |
| 20260508192545 | 57 | 131 | 2.0 | 9.0 | 0.00 | 0.01 | 0.00 | 59 | 1018.9 |
| 20260508192046 | 56 | 0 | 2.0 | 11.0 | 0.00 | 0.01 | 0.00 | 59 | 1018.8 |
| 20260508191556 | 56 | 49 | 5.0 | 11.0 | 0.00 | 0.01 | 0.00 | 57 | 1018.8 |
| 20260508191045 | 56 | 129 | 3.0 | 10.0 | 0.00 | 0.01 | 0.00 | 56 | 1018.9 |
| 20260508190546 | 56 | 0 | 2.0 | 8.0 | 0.00 | 0.01 | 0.00 | 59 | 1018.9 |
| 20260508190052 | 56 | 83 | 2.0 | 8.0 | 0.00 | 0.01 | 0.00 | 60 | 1019.0 |
| 20260508185545 | 56 | 61 | 1.0 | 10.0 | 0.00 | 0.04 | 0.00 | 58 | 1019.0 |
| 20260508185045 | 56 | 0 | 0.0 | 10.0 | 0.00 | 0.04 | 0.00 | 60 | 1019.1 |
| 20260508184555 | 55 | 51 | 0.0 | 9.0 | 0.00 | 0.04 | 0.00 | 62 | 1019.1 |
| 20260508184046 | 55 | 0 | 0.0 | 9.0 | 0.00 | 0.04 | 0.00 | 61 | 1019.2 |
| 20260508183545 | 55 | 0 | 3.0 | 9.0 | 0.00 | 0.04 | 0.00 | 58 | 1019.3 |
| 20260508183055 | 55 | 0 | 1.0 | 6.0 | 0.00 | 0.04 | 0.00 | 61 | 1019.2 |
| 20260508182545 | 55 | 0 | 0.0 | 6.0 | 0.00 | 0.04 | 0.00 | 61 | 1019.3 |
| 20260508182044 | 55 | 87 | 1.0 | 14.0 | 0.00 | 0.04 | 0.00 | 60 | 1019.3 |